MST,Max TemperatureF,Mean TemperatureF,Min TemperatureF,Max Dew PointF,MeanDew PointF,Min DewpointF,Max Humidity, Mean Humidity, Min Humidity, Max Sea Level PressureIn, Mean Sea Level PressureIn, Min Sea Level PressureIn, Max VisibilityMiles, Mean VisibilityMiles, Min VisibilityMiles, Max Wind SpeedMPH, Mean Wind SpeedMPH, Max Gust SpeedMPH,PrecipitationIn, CloudCover, Events, WindDirDegrees
2014-1-1,31,25,18,25,20,16,92,81,69,30.43,30.18,29.93,10,8,0,22,10,28,0.03,7,Fog-Rain-Snow,2
2014-1-2,42,30,18,23,19,15,88,64,39,30.40,30.29,30.12,10,10,10,15,7,21,0.00,1,,243
2014-1-3,65,40,15,29,22,12,88,54,19,30.09,29.76,29.55,10,10,10,36,10,48,0.00,1,,243
2014-1-4,37,25,12,24,13,2,75,56,36,30.28,30.02,29.71,10,10,10,31,15,43,0.00,5,,8
2014-1-5,16,5,-6,7,1,-17,80,66,51,30.67,30.38,30.19,10,6,1,30,12,37,T,6,Snow,359
2014-1-6,25,8,-10,9,-3,-16,79,58,36,30.62,30.46,30.19,10,10,10,16,7,20,0.00,1,,270
2014-1-7,49,30,11,21,16,6,76,54,31,30.16,30.10,30.02,10,10,10,12,6,16,0.00,3,,305
2014-1-8,34,25,16,19,17,14,92,72,51,30.28,30.20,30.09,10,10,10,16,9,25,0.00,4,,140
2014-1-9,41,26,11,23,17,8,92,69,46,30.17,29.97,29.75,10,9,5,16,8,21,0.00,0,,161
2014-1-10,44,32,19,29,22,13,92,63,33,29.84,29.70,29.60,10,8,1,29,13,38,T,5,Snow,312
2014-1-11,53,41,28,23,21,18,63,46,28,29.99,29.84,29.58,10,10,10,21,13,25,0.00,1,,259
2014-1-12,52,42,31,26,21,13,72,48,24,29.90,29.67,29.51,10,10,7,29,11,36,0.00,1,,290
2014-1-13,53,36,18,30,19,12,74,49,24,29.98,29.90,29.82,10,10,7,30,15,41,0.00,3,,288
2014-1-14,43,35,26,30,22,12,85,59,33,30.40,30.28,29.94,10,9,2,39,16,51,T,5,Snow,329
2014-1-15,59,41,23,24,20,17,75,48,21,30.29,30.08,29.92,10,10,10,30,14,38,0.00,3,,285
2014-1-16,43,34,24,23,9,1,61,40,18,30.32,30.15,29.98,10,7,2,45,25,56,0.00,5,,329
2014-1-17,51,34,17,19,15,10,74,49,24,30.29,30.14,29.98,10,10,10,20,9,24,0.00,2,,282
2014-1-18,51,38,25,21,14,5,55,36,16,30.20,30.09,29.95,10,10,8,38,17,46,0.00,0,,303
2014-1-19,66,46,25,21,14,8,63,37,11,30.08,29.98,29.88,10,10,10,29,12,36,0.00,0,,294
2014-1-20,48,31,14,20,14,10,73,48,23,30.48,30.24,29.92,10,8,2,41,18,54,0.00,2,,328
2014-1-21,59,34,9,19,11,4,88,50,11,30.45,30.23,30.06,10,10,7,35,13,44,0.00,0,,299
2014-1-22,40,24,8,22,10,-10,68,58,48,30.61,30.32,30.14,10,10,10,22,10,28,0.00,5,,15
2014-1-23,22,10,-2,5,-4,-13,80,57,33,30.87,30.71,30.46,10,10,10,16,8,20,0.00,1,,255
2014-1-24,57,34,10,22,14,3,73,46,18,30.41,30.14,29.99,10,10,6,37,19,51,0.00,2,,294
2014-1-25,59,48,37,27,22,16,50,38,25,30.10,29.97,29.83,10,10,10,28,15,33,0.00,0,,295
2014-1-26,57,35,12,26,16,-8,69,48,26,30.33,29.95,29.74,10,8,2,44,19,58,T,3,,340
2014-1-27,20,14,8,5,-3,-8,80,56,31,30.46,30.40,30.33,10,10,10,13,6,15,0.00,5,,181
2014-1-28,30,16,1,4,-2,-7,80,51,21,30.50,30.36,30.20,10,10,9,23,9,29,0.00,2,,288
2014-1-29,56,31,5,17,8,-1,76,46,16,30.17,29.85,29.39,10,10,10,22,10,30,T,2,Rain,239
2014-1-30,51,36,21,33,22,16,92,72,52,29.97,29.80,29.39,10,6,1,18,14,22,0.08,5,Rain-Snow,55
2014-1-31,21,14,7,18,15,5,100,87,73,30.08,29.93,29.79,10,5,0,15,7,17,0.13,7,Fog-Snow,130